[[{"header":{"parameterUnit":"m.s-1","parameterCategory":1,"la1":30.2991,"la2":30.254,"lo1":-89.0895,"lo2":-89.0444,"dy":0.0017,"dx":0.0017,"nx":28,"ny":28,"refTime":"2023-09-30T03:00:00:Z","depth":0,"parameterNumber":2,"parameterNumberName":"U-component_of_WINDS"},"data":[0,0,0,0,0,0,0,0,0,0,0,0,0,0,0,0,0,0,0,0,0,0,0,0,0,0,0,0,0,0,0,0,0,0,0,0,0,0,0,0,0,0,0,0,0,0,0,0,0,0,0,0,0,0,0,0,0,0,-3.0961,-3.0961,0,-3.0948,-3.0948,-3.0948,-3.0799,-3.0795,-3.0791,-3.0788,-3.0778,-3.0781,-3.0784,0,0,0,0,0,0,0,0,0,0,0,0,0,-3.086,-3.0862,-3.0961,-3.0961,-3.0961,-3.0948,-3.0948,-3.0948,-3.0799,-3.0795,-3.079,-3.0786,-3.0777,-3.0781,-3.0785,0,0,0,0,0,0,0,0,0,0,0,0,0,-3.0881,-3.0863,-3.0961,-3.0885,-3.0878,-3.0948,-3.0948,-3.0948,-3.08,-3.0795,-3.0789,-3.0784,-3.0776,-3.078,-3.0785,-3.0929,0,0,-3.08,-3.0802,0,0,0,0,0,0,0,0,-3.088,-3.0885,-3.0896,-3.089,-3.0883,-3.0869,-3.0909,-3.0942,-3.0802,-3.083,-3.0788,-3.0781,-3.0813,-3.0815,-3.0825,-3.0928,-3.0928,-3.0801,-3.0804,-3.0806,-3.0807,0,0,0,0,0,0,0,-3.0879,-3.0885,-3.0956,-3.0897,-3.0888,-3.0853,-3.0849,-3.0914,-3.0854,-3.0827,-3.0816,-3.0817,-3.0808,-3.082,-3.0823,-3.0928,-3.0801,-3.0805,-3.0808,-3.081,-3.1149,-3.1155,0,0,0,0,0,0,-3.0887,-3.0885,-3.0956,-3.0956,-3.0867,-3.0859,-3.0855,-3.0879,-3.0852,-3.0843,-3.0821,-3.081,-3.0815,-3.0818,-3.0823,-3.0989,-3.0806,-3.081,-3.0813,-3.1143,-3.115,-3.1157,0,0,0,0,0,0,-3.0886,-3.0895,-3.0957,-3.0917,-3.0922,-3.0867,-3.0895,-3.0882,-3.0894,-3.0848,-3.0837,-3.0845,-3.0811,-3.0816,-3.0903,-3.0987,-3.0812,-3.0817,-3.1136,-3.1145,-3.1153,-3.1324,0,0,0,0,0,0,-3.0884,-3.0896,-3.0949,-3.0919,-3.0925,-3.1038,-3.09,-3.0886,-3.0902,-3.0887,-3.0867,-3.0858,-3.0806,-3.0897,-3.0908,-3.099,-3.0821,-3.1128,-3.114,-3.1151,-3.131,-3.1337,-3.1361,0,0,0,0,0,-3.0881,-3.0998,-3.0952,-3.0962,-3.099,-3.1043,-3.1046,-3.0983,-3.091,-3.0963,-3.0934,-3.0859,-3.0976,-3.0907,-3.0919,-3.1003,-3.1122,-3.1136,-3.115,-3.1299,-3.1332,-3.136,0,0,0,0,0,0,-3.1039,-3.0992,-3.0942,-3.1052,-3.1053,-3.1017,-3.1083,-3.102,-3.1041,-3.1026,-3.0948,-3.0945,-3.1045,-3.1032,-3.0957,-3.1141,-3.1036,-3.1053,-3.1146,-3.1177,-3.1201,-3.1203,-3.0825,0,0,0,0,0,-3.1087,-3.1133,-3.1089,-3.1192,-3.1194,-3.1139,-3.116,-3.1111,-3.1108,-3.1108,-3.1085,-3.1086,-3.1123,-3.1149,-3.118,-3.1307,-3.1302,-3.1372,-3.1397,-3.1418,-3.1433,-3.1501,-3.1532,-3.1202,-3.1201,-3.1201,0,0,-3.1187,-3.1167,-3.12,-3.1223,-3.1217,-3.1268,-3.114,-3.1198,-3.1235,-3.1117,-3.1198,-3.1182,-3.1178,-3.1286,-3.1333,-3.1279,-3.1523,-3.1435,-3.1452,-3.1456,-3.1518,-3.1549,-3.1577,-3.1211,-3.1209,-3.1208,0,0,-3.1394,-3.1383,-3.1467,-3.1464,-3.1456,-3.1419,-3.1439,-3.1414,-3.1398,-3.1478,-3.1391,-3.1434,-3.1499,-3.15,-3.1509,-3.1717,-3.165,-3.173,-3.1861,-3.1928,-3.1954,-3.1977,-3.2052,-3.208,-3.1745,-3.1746,-3.1746,0,-3.1519,-3.1589,-3.1518,-3.1582,-3.1596,-3.149,-3.1576,-3.1576,-3.158,-3.1593,-3.1532,-3.1611,-3.1601,-3.1709,-3.176,-3.1771,-3.1792,-3.1732,-3.1956,-3.1978,-3.1998,-3.2069,-3.2097,-3.1755,-3.1754,-3.1753,-3.1752,0,-3.1744,-3.1795,-3.1864,-3.1869,-3.189,-3.1965,-3.1906,-3.1936,-3.1886,-3.1855,-3.1939,-3.1923,-3.195,-3.1972,-3.1924,-3.2073,-3.204,-3.1969,-3.1862,-3.2041,-3.2106,-3.2132,-3.177,-3.1766,-3.1763,-3.1761,0,0,-3.2051,-3.2016,-3.2043,-3.2044,-3.2029,-3.2067,-3.2137,-3.2162,-3.219,-3.2197,-3.2254,-3.2312,-3.2246,-3.2257,-3.2208,-3.2267,-3.2434,-3.2188,-3.2187,-3.2235,-3.2599,-3.2653,-3.2686,-3.2388,-3.2393,-3.2397,-3.26,0,-3.2251,-3.2368,-3.2306,-3.2432,-3.2478,-3.2379,-3.244,-3.2439,-3.2412,-3.2448,-3.2419,-3.2462,-3.2371,-3.2377,-3.243,-3.2402,-3.2506,-3.2387,-3.2443,-3.2446,-3.2448,-3.272,-3.2777,-3.2969,-3.2625,-3.2629,-3.2632,0,-3.25,-3.2516,-3.2647,-3.2623,-3.264,-3.2696,-3.2714,-3.275,-3.2746,-3.2723,-3.2735,-3.2673,-3.2741,-3.2635,-3.2729,-3.2649,-3.2668,-3.2659,-3.2664,-3.2668,-3.255,-3.2732,-3.3028,-3.3058,-3.2671,-3.2668,-3.2665,0,-3.2712,-3.2767,-3.2852,-3.2856,-3.283,-3.2872,-3.2863,-3.2853,-3.2873,-3.2889,-3.2901,-3.2926,-3.294,-3.2962,-3.2908,-3.2835,-3.301,-3.2899,-3.2994,-3.2996,-3.3036,-3.3034,-3.3341,-3.3048,-3.3047,-3.3047,-3.3046,0,-3.2943,-3.3027,-3.2947,-3.2999,-3.3091,-3.3019,-3.3112,-3.3093,-3.3085,-3.3133,-3.3049,-3.3096,-3.3022,-3.3062,-3.3021,-3.3106,-3.3113,-3.3097,-3.3085,-3.3105,-3.3107,-3.3117,-3.3103,-3.3054,-3.3052,-3.3051,-3.305,0,-3.3196,-3.3145,-3.3231,-3.3199,-3.3193,-3.3263,-3.3236,-3.3284,-3.3251,-3.3313,-3.3323,-3.3273,-3.3316,-3.3265,-3.3303,-3.3275,-3.3391,-3.3359,-3.3393,-3.3384,-3.3482,-3.3474,-3.3807,-3.3847,-3.3527,-3.3531,-3.3533,0,-3.3346,-3.3408,-3.3383,-3.3409,-3.3405,-3.3447,-3.3466,-3.3399,-3.3422,-3.3422,-3.3471,-3.3507,-3.3531,-3.3605,-3.3573,-3.3603,-3.3571,-3.3686,-3.3575,-3.3594,-3.3574,-3.3572,-3.3578,-3.3709,-3.3713,-3.3716,-3.3718,0,-3.362,-3.3592,-3.3622,-3.3644,-3.3669,-3.3683,-3.3691,-3.3717,-3.3647,-3.3678,-3.372,-3.374,-3.3779,-3.3816,-3.3837,-3.3829,-3.3764,-3.3753,-3.3777,-3.3798,-3.3816,-3.3809,-3.3455,-3.3746,-3.3743,-3.3741,-3.374,-3.3739,-3.3827,-3.3877,-3.3868,-3.3904,-3.3903,-3.3913,-3.3956,-3.3929,-3.3963,-3.3988,-3.3947,-3.4001,-3.3996,-3.4016,-3.4016,-3.4058,-3.4009,-3.4044,-3.4052,-3.4062,-3.4078,-3.3808,-3.4062,-3.4061,-3.406,-3.4059,-3.4059,0,-3.4097,-3.4085,-3.4119,-3.4133,-3.4162,-3.4096,-3.4102,-3.4131,-3.4179,-3.4179,-3.4205,-3.4255,-3.429,-3.4261,-3.4291,-3.433,-3.4301,-3.4341,-3.4338,-3.4337,-3.4119,-3.4096,-3.4364,-3.4364,-3.4364,-3.4364,-3.4364,-3.4364,-3.4241,-3.4323,-3.4294,-3.4376,-3.4364,-3.4415,-3.4424,-3.4433,-3.4433,-3.4492,-3.452,-3.45,-3.449,-3.4518,-3.4548,-3.4539,-3.4554,-3.4605,-3.4585,-3.4382,-3.4352,-3.4324,-3.4302,-3.4609,-3.4609,-3.48,-3.4802,-3.4803]},{"header":{"parameterUnit":"m.s-1","parameterCategory":1,"la1":30.2991,"la2":30.254,"lo1":-89.0895,"lo2":-89.0444,"dy":0.0017,"dx":0.0017,"nx":28,"ny":28,"refTime":"2023-09-30T03:00:00:Z","depth":0,"parameterNumber":3,"parameterNumberName":"V-component_of_WINDS"},"data":[0,0,0,0,0,0,0,0,0,0,0,0,0,0,0,0,0,0,0,0,0,0,0,0,0,0,0,0,0,0,0,0,0,0,0,0,0,0,0,0,0,0,0,0,0,0,0,0,0,0,0,0,0,0,0,0,0,0,1.3885,1.3885,0,1.3908,1.3908,1.3908,1.3961,1.3962,1.3963,1.3964,1.3982,1.3981,1.3981,0,0,0,0,0,0,0,0,0,0,0,0,0,1.3883,1.3883,1.3885,1.3885,1.3886,1.3908,1.3908,1.3908,1.3961,1.3962,1.3963,1.3965,1.3982,1.3982,1.3981,0,0,0,0,0,0,0,0,0,0,0,0,0,1.3892,1.3883,1.3885,1.3915,1.3917,1.3908,1.3908,1.3908,1.3961,1.3962,1.3964,1.3965,1.3982,1.3982,1.3981,1.3942,0,0,1.3978,1.3978,0,0,0,0,0,0,0,0,1.3892,1.3892,1.391,1.3912,1.3916,1.3933,1.3914,1.392,1.396,1.3944,1.3964,1.3966,1.3964,1.3965,1.3965,1.3943,1.3944,1.3978,1.3978,1.3977,1.3977,0,0,0,0,0,0,0,1.3891,1.3892,1.3894,1.391,1.3914,1.3925,1.3929,1.3915,1.3944,1.3945,1.3949,1.3952,1.3966,1.3966,1.3966,1.3944,1.3978,1.3977,1.3977,1.3977,1.3892,1.3891,0,0,0,0,0,0,1.3887,1.3891,1.3893,1.3895,1.3908,1.3924,1.3928,1.3926,1.3945,1.3949,1.395,1.3954,1.3967,1.3967,1.3967,1.3923,1.3977,1.3977,1.3976,1.3894,1.3892,1.389,0,0,0,0,0,0,1.3887,1.3887,1.3892,1.3894,1.3896,1.3922,1.392,1.3925,1.3926,1.3948,1.3953,1.3945,1.3968,1.3968,1.3949,1.3924,1.3976,1.3975,1.3896,1.3893,1.3891,1.3834,0,0,0,0,0,0,1.3886,1.3886,1.3872,1.3893,1.3895,1.3874,1.3919,1.3925,1.3925,1.393,1.3945,1.3949,1.3969,1.395,1.3948,1.3924,1.3975,1.3898,1.3895,1.3892,1.3839,1.383,1.3823,0,0,0,0,0,1.3886,1.3854,1.3872,1.3871,1.3879,1.3873,1.3874,1.39,1.3923,1.3908,1.3923,1.3948,1.3928,1.3947,1.3946,1.3921,1.39,1.3896,1.3892,1.3842,1.3832,1.3823,0,0,0,0,0,0,1.3828,1.3858,1.3877,1.3851,1.386,1.3882,1.3865,1.3888,1.3888,1.3893,1.3923,1.3926,1.3902,1.391,1.3931,1.3885,1.3918,1.3913,1.388,1.3871,1.3864,1.3861,1.3974,0,0,0,0,0,1.3812,1.3806,1.3832,1.3807,1.3811,1.3837,1.3835,1.3855,1.3864,1.3867,1.388,1.3886,1.3881,1.3877,1.3874,1.3841,1.3844,1.3824,1.3816,1.381,1.3804,1.3787,1.3778,1.3877,1.3877,1.3877,0,0,1.3779,1.3795,1.3789,1.3796,1.3805,1.3796,1.3839,1.3829,1.3822,1.3864,1.3847,1.3857,1.3866,1.384,1.3829,1.3846,1.3778,1.3805,1.3799,1.3798,1.3782,1.3773,1.3764,1.3874,1.3875,1.3875,0,0,1.3715,1.3727,1.3708,1.3716,1.3729,1.3748,1.3743,1.3762,1.3771,1.3755,1.3787,1.3779,1.377,1.3775,1.3777,1.3717,1.3739,1.3715,1.3674,1.3657,1.3649,1.3642,1.3619,1.3611,1.3711,1.3711,1.371,0,1.3672,1.3662,1.3694,1.3682,1.3683,1.3724,1.3704,1.371,1.3721,1.372,1.374,1.373,1.3739,1.3714,1.37,1.3701,1.3695,1.3712,1.3648,1.3641,1.3635,1.3614,1.3605,1.3707,1.3708,1.3708,1.3708,0,1.3608,1.3601,1.3583,1.3595,1.3595,1.3578,1.3607,1.3603,1.3623,1.3639,1.3622,1.3635,1.3635,1.3631,1.3649,1.3609,1.3619,1.3643,1.3675,1.3622,1.3602,1.3595,1.3703,1.3704,1.3705,1.3706,0,0,1.3504,1.3536,1.3528,1.3534,1.3553,1.3548,1.3533,1.3536,1.3531,1.3538,1.3525,1.3518,1.3541,1.3543,1.3563,1.3548,1.3499,1.3574,1.3575,1.3558,1.3453,1.3433,1.3424,1.3515,1.3514,1.3513,1.3452,0,1.3442,1.3421,1.345,1.3421,1.3414,1.3454,1.3442,1.3451,1.3466,1.3462,1.3478,1.3472,1.3503,1.3505,1.3492,1.3507,1.3478,1.3513,1.3502,1.3501,1.3496,1.3414,1.3392,1.3334,1.3445,1.3443,1.3443,0,1.3366,1.3372,1.3343,1.3365,1.3363,1.3351,1.3356,1.3352,1.3364,1.3376,1.3379,1.3404,1.339,1.3425,1.3406,1.3429,1.3426,1.3433,1.3432,1.3429,1.3467,1.3407,1.3316,1.3307,1.3431,1.3432,1.3433,0,1.3292,1.3292,1.3275,1.3279,1.3304,1.3295,1.3305,1.3319,1.3318,1.3322,1.3322,1.3324,1.3324,1.3325,1.3349,1.3372,1.3326,1.3363,1.3334,1.3333,1.332,1.332,1.3225,1.3323,1.3323,1.3323,1.3323,0,1.3218,1.3198,1.3241,1.323,1.3209,1.3244,1.3221,1.3235,1.3248,1.3239,1.3274,1.3265,1.33,1.3294,1.3313,1.3294,1.3294,1.3302,1.3307,1.3297,1.3296,1.3294,1.3298,1.3321,1.3321,1.3322,1.3322,0,1.3129,1.3158,1.3141,1.3168,1.3175,1.3158,1.318,1.317,1.3189,1.3178,1.3177,1.3205,1.3201,1.3227,1.3226,1.3239,1.3209,1.3222,1.3205,1.3208,1.3177,1.3179,1.3076,1.3063,1.317,1.3169,1.3169,0,1.3079,1.3065,1.3091,1.3089,1.3098,1.3094,1.3095,1.3128,1.3127,1.3141,1.3129,1.3128,1.3129,1.3119,1.3139,1.3139,1.315,1.3115,1.315,1.3141,1.3147,1.3147,1.3145,1.3106,1.3105,1.3103,1.3103,0,1.2987,1.3002,1.3003,1.3009,1.3009,1.3015,1.3023,1.3019,1.3055,1.3052,1.3049,1.305,1.3051,1.3048,1.3053,1.3062,1.3087,1.3092,1.3085,1.3074,1.3064,1.3067,1.3182,1.3093,1.3094,1.3095,1.3095,1.3096,1.2915,1.2904,1.2921,1.2921,1.2931,1.2938,1.2931,1.295,1.2948,1.2953,1.2973,1.2966,1.2979,1.2988,1.2994,1.2988,1.3005,1.2995,1.2992,1.2989,1.2983,1.3067,1.2989,1.299,1.299,1.299,1.2991,0,1.2823,1.2836,1.2836,1.2847,1.2847,1.2875,1.2885,1.2882,1.2877,1.2888,1.2888,1.2885,1.2883,1.2904,1.2905,1.2896,1.2908,1.2895,1.2895,1.2896,1.2968,1.2973,1.2886,1.2886,1.2886,1.2886,1.2886,1.2886,1.2774,1.2758,1.2776,1.2765,1.2779,1.2774,1.2777,1.2783,1.2792,1.2788,1.2787,1.2802,1.2817,1.2819,1.2819,1.2825,1.2823,1.2805,1.2815,1.2881,1.2891,1.2901,1.2906,1.2805,1.2805,1.2743,1.2743,1.2742]}]]